Wind_Speed
42 42 43 42 42 42 41 41 42 42 42 43 43 43 42 42 43 42 42 41 40 39 38 38 38 38 38 37 37 37 37 37 37 37 37 37 37 37 37 37 37 37 37
43 43 44 44 44 43 43 43 44 45 45 45 45 45 46 46 45 45 45 43 42 42 42 41 41 41 41 40 40 40 39 40 39 39 39 38 37 38 38 38 38 38 38
44 44 44 44 44 44 44 45 46 47 48 48 48 48 48 48 48 47 46 46 46 46 45 45 45 45 44 43 43 42 42 42 42 41 41 40 40 39 39 39 39 39 39
43 43 43 44 44 45 45 46 47 48 49 50 51 51 50 50 49 49 49 49 50 49 48 48 48 48 47 46 45 45 45 45 44 44 43 43 42 41 41 40 41 41 41
40 41 42 43 44 45 46 47 48 49 50 52 53 53 53 53 52 52 52 52 52 52 51 51 50 50 50 49 48 48 47 47 46 46 45 45 44 43 43 42 42 43 44
38 39 41 42 43 45 46 48 49 51 52 53 54 55 56 56 56 56 55 55 54 54 54 53 53 52 52 51 50 50 50 49 48 48 47 47 46 46 45 45 45 45 45
36 38 39 41 42 44 47 49 50 52 54 56 57 58 59 60 60 60 60 59 58 57 56 55 55 55 54 53 52 52 51 51 50 50 49 48 48 48 48 47 47 47 47
35 37 39 41 43 45 48 50 52 54 56 58 60 61 62 63 63 63 63 63 62 60 59 58 57 56 55 54 53 53 53 52 52 51 50 50 50 49 49 49 49 49 49
34 36 38 41 43 45 48 50 53 55 57 60 61 63 64 65 66 66 66 66 65 63 62 60 58 57 56 55 55 55 54 54 53 52 51 51 50 51 51 50 50 51 51
33 35 38 40 42 45 47 50 53 55 58 60 62 64 65 66 67 67 67 67 66 64 63 60 58 57 57 57 56 55 55 54 53 52 51 50 50 51 51 50 51 53 54
31 34 36 38 41 44 47 50 52 55 57 60 62 63 64 65 66 66 66 65 65 64 62 60 58 57 56 56 56 55 55 53 52 51 50 50 50 51 51 51 54 56 57
29 31 33 36 39 42 45 48 51 53 55 57 58 59 60 60 60 60 60 60 60 60 59 58 57 55 54 54 54 53 53 51 50 50 49 49 50 51 52 54 57 58 60
27 29 31 33 36 39 42 44 47 49 50 50 51 51 51 52 53 54 54 54 54 54 54 54 53 52 52 51 51 50 49 48 48 48 48 48 49 51 53 56 59 61 63
24 26 28 31 33 36 38 40 41 41 41 41 41 41 42 43 44 44 45 46 46 47 48 48 48 47 47 47 46 46 45 45 45 45 46 48 50 53 55 58 60 62 64
22 24 26 28 30 32 33 34 33 31 30 30 29 29 31 32 32 33 35 37 38 39 40 40 41 41 41 41 41 42 42 42 43 44 46 48 51 54 56 58 61 63 66
20 21 23 25 26 27 28 28 27 25 23 22 20 19 19 20 22 24 26 28 30 31 32 33 34 34 35 36 37 38 39 40 41 43 46 48 52 55 57 60 62 64 66
18 19 20 22 22 23 24 24 23 21 18 16 13 11 11 12 14 16 18 21 22 24 25 26 28 29 31 32 33 34 36 39 41 44 47 49 53 56 57 59 61 64 67
15 16 17 19 19 20 21 21 20 18 16 12 9 5 4 6 8 10 13 16 18 19 21 23 24 25 27 28 30 33 35 38 40 43 46 49 52 55 57 59 62 65 68
14 14 15 16 16 17 18 18 17 15 14 11 9 6 3 2 4 6 8 11 14 15 17 19 22 25 26 27 30 32 34 37 40 43 46 49 52 55 57 60 63 66 68
13 13 13 13 14 14 15 15 15 14 12 10 9 7 4 2 0 3 6 8 10 13 15 16 19 21 24 27 29 31 34 37 40 44 47 50 53 55 58 61 63 65 67
11 11 11 12 12 12 12 13 13 12 11 10 9 7 5 3 1 1 3 6 8 10 12 15 18 20 23 26 29 32 35 38 41 45 48 51 54 57 60 62 63 64 65
11 10 10 10 10 10 11 11 11 11 10 10 9 8 7 5 3 4 5 7 8 10 13 16 19 22 25 27 30 33 36 39 42 46 49 52 55 58 60 62 62 61 59
10 10 10 10 10 10 10 10 10 10 10 9 9 9 8 7 7 7 8 9 11 13 15 18 20 23 25 28 32 35 38 41 44 47 51 54 56 59 60 60 57 53 50
10 10 9 9 9 9 9 9 9 9 10 10 9 9 9 9 9 10 11 13 14 16 17 20 22 25 28 31 34 37 40 44 47 50 53 55 58 58 56 52 48 45 42
10 10 9 8 8 8 8 8 9 9 10 11 11 11 11 12 12 13 14 15 16 18 20 22 25 28 30 33 36 40 43 46 49 52 54 56 55 52 48 44 41 40 38
10 10 9 9 9 8 8 9 10 11 11 12 13 13 14 14 14 15 17 18 19 21 23 26 28 31 34 37 40 43 46 48 51 53 54 52 49 45 41 39 38 36 35
Wind_Direction
254 255 256 256 255 254 254 253 254 255 255 256 258 258 259 259 260 261 261 262 264 266 268 270 272 274 275 277 278 280 281 283 284 284 285 286 287 288 288 289 290 291 292
254 256 257 258 258 258 257 257 257 257 258 258 258 258 258 258 259 260 261 263 265 266 267 268 270 272 274 276 278 279 280 281 282 283 283 284 285 287 288 289 290 291 292
255 257 259 259 260 260 260 260 259 259 260 260 259 259 259 259 259 260 261 262 262 263 264 266 268 270 273 275 277 278 278 280 281 282 282 283 284 285 287 288 289 290 292
257 259 260 261 261 262 262 262 262 262 262 261 261 260 260 259 259 258 258 259 260 262 264 266 268 269 271 273 274 276 277 278 280 280 282 282 283 285 285 287 288 289 291
258 260 260 261 262 263 263 263 264 264 263 263 263 262 261 260 259 259 259 259 260 261 263 265 266 267 269 270 272 273 275 276 277 279 281 282 282 284 285 286 287 288 289
258 260 261 262 263 264 265 266 266 266 266 265 265 264 263 262 261 260 259 259 259 260 261 262 263 265 266 268 269 271 273 274 275 277 279 281 282 284 284 285 286 287 288
260 262 264 265 266 267 268 268 269 268 268 267 266 265 264 263 263 261 260 259 258 259 259 259 261 262 264 265 266 268 270 271 273 275 277 279 281 283 284 285 286 286 288
262 264 266 267 268 269 269 270 270 270 269 268 267 266 265 264 263 262 261 260 259 258 258 258 259 260 261 263 264 265 268 269 271 273 275 277 280 282 283 284 284 285 286
265 267 269 270 270 271 271 271 271 270 269 268 267 266 265 263 262 261 260 259 258 258 257 257 257 258 259 261 263 264 266 268 270 272 274 276 278 280 282 283 283 284 286
268 271 272 273 274 274 274 273 273 272 270 269 267 266 264 262 260 259 258 258 257 257 257 256 256 257 257 259 260 262 264 267 269 272 274 276 278 280 281 281 282 284 286
272 274 276 277 278 279 279 278 276 275 274 272 269 267 265 262 260 258 257 256 255 255 255 254 255 256 257 258 259 261 263 266 269 271 274 276 277 278 280 281 282 285 286
276 278 282 284 285 286 286 284 283 281 278 275 272 268 265 262 259 257 256 254 254 253 253 253 254 255 257 258 259 262 264 266 268 271 274 275 277 278 280 281 284 285 287
282 286 289 292 294 294 293 292 291 287 283 280 276 270 265 262 259 256 254 253 252 252 252 253 254 255 257 258 260 263 264 266 269 271 274 275 277 279 280 282 285 288 290
289 293 297 301 303 303 303 302 300 295 291 285 279 272 266 262 258 255 252 251 250 250 250 252 254 256 257 259 261 263 265 267 269 271 273 275 277 279 281 283 286 289 292
297 301 305 308 312 314 314 314 312 307 301 293 283 276 267 260 255 252 250 249 248 249 249 251 253 255 257 258 260 262 264 266 269 272 275 276 278 281 284 287 290 291 293
303 307 311 316 320 322 324 326 324 318 312 304 294 282 269 260 253 247 245 246 247 247 247 248 250 252 254 256 258 261 264 266 270 274 277 280 283 286 288 291 293 295 296
310 313 318 324 327 330 333 337 337 333 330 322 309 290 270 258 251 245 242 243 243 242 245 246 246 248 251 255 259 264 267 270 273 277 281 285 287 289 292 295 297 298 300
317 321 325 331 335 338 341 344 346 349 349 349 346 330 292 258 240 233 234 235 237 239 241 243 246 247 253 259 262 267 272 274 278 282 286 289 292 295 297 299 300 301 302
318 324 330 335 340 344 349 353 358 1 6 13 16 14 355 273 233 229 234 236 238 236 240 245 247 252 258 264 270 274 278 282 285 289 292 294 297 298 300 301 302 303 304
320 323 330 338 344 350 355 360 3 6 9 16 21 23 24 17 278 218 224 231 234 240 250 256 260 264 269 274 277 281 285 289 292 295 297 299 300 302 304 305 306 306 307
324 326 328 334 342 350 359 6 9 12 15 17 15 15 11 6 349 271 255 255 256 260 264 271 275 278 280 283 287 290 293 295 298 300 301 303 304 305 307 308 308 308 309
321 325 329 335 339 345 353 1 4 7 11 15 16 17 16 10 345 319 303 294 289 283 281 282 286 289 291 293 295 297 299 301 302 304 305 306 308 309 310 310 310 311 312
318 322 322 326 331 334 340 346 352 358 2 3 4 1 356 350 340 327 315 307 303 299 296 295 296 297 299 300 301 303 304 306 308 308 309 310 312 312 312 313 313 315 316
313 317 320 322 325 329 335 340 344 350 352 353 352 349 345 338 332 326 320 315 311 309 306 304 304 304 304 305 306 308 310 311 312 313 313 314 315 315 315 316 317 319 319
307 309 311 317 325 329 333 340 343 344 345 345 343 339 336 332 327 323 319 316 313 311 309 309 309 309 310 310 312 313 314 315 315 316 317 317 317 317 318 319 320 321 321
300 300 303 308 316 322 328 332 335 337 337 336 335 334 332 329 325 321 318 316 314 313 313 313 313 314 315 315 316 317 317 318 318 319 319 319 319 319 319 320 321 323 324
Height
5762 5763 5764 5766 5768 5771 5773 5774 5776 5777 5778 5778 5779 5780 5781 5781 5782 5782 5782 5783 5783 5784 5784 5784 5783 5783 5783 5782 5782 5781 5780 5780 5778 5778 5776 5775 5774 5773 5771 5769 5768 5766 5764
5754 5755 5757 5758 5760 5762 5764 5765 5766 5767 5768 5769 5770 5771 5772 5772 5773 5773 5774 5774 5775 5775 5775 5775 5775 5774 5774 5774 5774 5773 5772 5772 5771 5770 5768 5767 5767 5764 5763 5761 5759 5757 5755
5746 5747 5749 5750 5751 5753 5754 5755 5756 5757 5758 5759 5760 5761 5762 5763 5763 5764 5765 5765 5765 5765 5765 5766 5766 5766 5765 5765 5765 5764 5764 5763 5762 5761 5760 5759 5758 5756 5754 5752 5750 5748 5746
5737 5739 5740 5741 5742 5743 5744 5745 5746 5746 5747 5747 5748 5749 5751 5752 5753 5754 5754 5754 5754 5754 5755 5755 5756 5756 5756 5756 5756 5755 5754 5754 5753 5752 5751 5750 5748 5747 5746 5744 5741 5739 5737
5729 5730 5731 5732 5732 5733 5734 5734 5735 5735 5735 5735 5736 5737 5738 5740 5741 5741 5742 5742 5743 5744 5744 5745 5745 5746 5746 5746 5745 5745 5745 5744 5743 5742 5741 5739 5738 5737 5735 5734 5732 5729 5726
5720 5721 5722 5723 5723 5724 5724 5724 5724 5724 5723 5723 5723 5724 5725 5726 5727 5728 5728 5730 5730 5731 5732 5733 5734 5734 5735 5735 5735 5734 5734 5734 5733 5732 5731 5730 5728 5727 5725 5723 5721 5718 5716
5712 5713 5714 5714 5714 5714 5714 5713 5713 5712 5711 5710 5710 5710 5710 5711 5712 5713 5714 5715 5716 5718 5719 5720 5721 5722 5723 5723 5723 5723 5723 5723 5722 5721 5720 5719 5718 5716 5714 5712 5709 5707 5704
5705 5705 5705 5705 5705 5704 5703 5702 5701 5699 5697 5696 5695 5694 5694 5694 5695 5696 5697 5699 5701 5703 5705 5706 5708 5709 5710 5711 5711 5711 5711 5711 5711 5710 5709 5708 5706 5704 5702 5700 5698 5695 5692
5697 5697 5696 5696 5695 5693 5692 5690 5688 5685 5683 5680 5679 5677 5676 5676 5677 5678 5679 5682 5685 5687 5690 5692 5694 5696 5697 5698 5699 5699 5699 5699 5699 5699 5698 5696 5695 5693 5691 5688 5685 5683 5680
5689 5688 5687 5686 5684 5682 5679 5676 5673 5670 5667 5663 5661 5659 5657 5656 5657 5659 5661 5664 5667 5671 5674 5677 5680 5682 5684 5685 5686 5687 5687 5687 5687 5687 5686 5685 5683 5681 5678 5675 5672 5669 5666
5680 5679 5677 5675 5673 5670 5666 5662 5658 5654 5649 5645 5642 5639 5637 5637 5637 5640 5643 5646 5650 5654 5658 5662 5665 5668 5670 5672 5674 5675 5676 5676 5676 5676 5674 5673 5671 5668 5665 5662 5659 5655 5651
5672 5670 5668 5665 5661 5657 5652 5647 5642 5636 5631 5626 5622 5619 5618 5617 5619 5622 5625 5629 5634 5639 5643 5648 5652 5655 5658 5660 5662 5663 5664 5665 5665 5664 5663 5661 5658 5656 5653 5649 5645 5641 5636
5663 5661 5658 5655 5650 5645 5639 5632 5626 5619 5613 5607 5603 5601 5600 5601 5603 5606 5610 5615 5620 5625 5630 5635 5639 5643 5646 5649 5651 5652 5653 5654 5653 5652 5651 5649 5646 5643 5640 5636 5631 5626 5621
5656 5653 5650 5645 5640 5634 5627 5619 5612 5604 5598 5592 5588 5586 5586 5587 5590 5593 5598 5603 5608 5613 5619 5624 5628 5632 5635 5638 5640 5642 5643 5643 5642 5641 5640 5637 5634 5631 5627 5622 5617 5612 5606
5649 5646 5642 5637 5631 5625 5617 5610 5601 5594 5587 5582 5578 5576 5576 5578 5581 5585 5589 5594 5599 5604 5610 5614 5619 5622 5626 5629 5631 5632 5633 5633 5632 5631 5628 5626 5622 5618 5614 5609 5603 5597 5590
5643 5639 5635 5630 5625 5618 5611 5603 5595 5588 5582 5577 5573 5571 5572 5573 5575 5579 5583 5588 5593 5598 5603 5607 5611 5614 5618 5620 5622 5623 5623 5623 5622 5620 5618 5614 5610 5606 5601 5595 5588 5581 5574
5637 5634 5630 5625 5620 5614 5607 5600 5593 5586 5580 5575 5571 5570 5570 5571 5574 5577 5581 5585 5589 5593 5597 5601 5604 5608 5610 5612 5614 5614 5614 5614 5612 5610 5607 5603 5598 5593 5587 5581 5573 5565 5556
5633 5630 5626 5622 5616 5611 5605 5599 5592 5587 5581 5576 5573 5572 5571 5572 5574 5577 5580 5583 5587 5591 5594 5597 5599 5602 5604 5606 5607 5607 5606 5604 5602 5599 5596 5591 5586 5580 5574 5567 5559 5549 5540
5629 5626 5623 5619 5614 5609 5604 5599 5593 5588 5584 5580 5577 5576 5575 5575 5576 5578 5580 5583 5586 5589 5591 5593 5596 5598 5599 5600 5600 5599 5597 5595 5592 5588 5584 5579 5573 5567 5560 5553 5544 5534 5523
5626 5623 5620 5617 5613 5609 5604 5600 5595 5591 5587 5584 5582 5580 5579 5579 5579 5580 5582 5584 5586 5588 5590 5591 5592 5593 5594 5593 5592 5591 5588 5586 5582 5578 5573 5567 5560 5553 5545 5537 5527 5517 5506
5623 5620 5618 5615 5612 5608 5605 5601 5597 5594 5590 5588 5585 5583 5582 5582 5582 5583 5584 5585 5586 5587 5587 5588 5589 5589 5588 5587 5585 5583 5580 5576 5572 5566 5560 5554 5546 5538 5530 5520 5511 5501 5490
5620 5618 5616 5613 5611 5608 5605 5602 5599 5596 5593 5590 5588 5587 5585 5585 5584 5584 5584 5585 5585 5585 5585 5585 5585 5584 5582 5580 5578 5575 5571 5566 5561 5555 5548 5540 5532 5524 5514 5504 5494 5484 5474
5618 5616 5614 5611 5609 5607 5605 5602 5599 5597 5594 5592 5590 5589 5587 5586 5586 5585 5584 5584 5584 5583 5582 5581 5580 5578 5576 5573 5570 5566 5561 5555 5549 5542 5535 5527 5518 5508 5498 5488 5478 5469 5460
5615 5613 5612 5610 5608 5606 5604 5602 5599 5597 5595 5593 5591 5589 5588 5587 5586 5585 5584 5582 5581 5580 5579 5577 5575 5572 5569 5566 5561 5556 5550 5544 5537 5529 5521 5512 5502 5493 5483 5474 5465 5457 5449
5613 5611 5609 5608 5606 5604 5602 5601 5599 5597 5595 5593 5591 5589 5587 5586 5584 5583 5581 5580 5578 5576 5574 5572 5569 5565 5561 5557 5552 5546 5539 5532 5524 5516 5507 5498 5488 5479 5470 5462 5455 5448 5441
5610 5608 5607 5606 5604 5603 5601 5599 5597 5595 5593 5591 5590 5588 5586 5584 5582 5580 5578 5576 5574 5571 5568 5565 5561 5557 5553 5547 5541 5535 5528 5520 5512 5503 5494 5484 5475 5467 5460 5453 5447 5440 5433